User: anonymous   Login
Location: Mercogliano
(40.9167°N, 14.7333°E)
Time: 19:31:20
(UTC+00:00)
Language:

Cosmos 1025 Rocket - Orbit

View from above orbital plane
View from above orbital plane
View from above satellite
View from above satellite

Ground track
Ground track

The orbit data is extracted from the following two-line orbital elements,

1 10974U 78067B   20331.78562153  .00000122  00000-0  10737-4 0  9992
2 10974  82.4845  57.0919 0018603 129.2824 231.0047 14.87370907294638
Epoch (UTC): 26 November 2020 18:51:17
Eccentricity: 0.0018603
inclination: 82.4845°
perigee height: 593 km
apogee height: 619 km
right ascension of ascending node: 57.0919°
argument of perigee: 129.2824°
revolutions per day: 14.87370907
mean anomaly at epoch: 231.0047°
orbit number at epoch: 29463

The dashed part of the orbit path shows where the satellite is in the earth's shadow,  

DLR